Weather History for Lee's Summit, MO

Change the Weather History Date:

Friday, November 23, 2012

  Actual Average (KMKC) Record (KMKC)
Temperature  
Mean Temperature 36 °F -  
Max Temperature 44 °F 50 °F 69 °F (2006)
Min Temperature 27 °F 33 °F 15 °F (2013)
Degree Days  
Heating Degree Days 29    
Moisture  
Dew Point 16 °F    
Average Humidity 46    
Maximum Humidity 63    
Minimum Humidity 35    
Precipitation  
Precipitation 0.00 in - - ()
Sea Level Pressure  
Sea Level Pressure 30.42 in    
Wind  
Wind Speed 13 mph (NW)    
Max Wind Speed 23 mph    
Max Gust Speed 34 mph    
Visibility 10 miles    
Events      
Averages and records for this station are not official NWS values.
T = Trace of Precipitation, MM = Missing Value Source: NWS Daily Summary

Daily Weather History Graph

Daily Weather History Graph

Search for Another Location

Airport:

Trip Planner

Search our weather history database for the weather conditions in past years. The results will help you decide how hot, cold, wet, or windy it might be!

Date:

Astronomy

Nov. 23, 2012 Rise Set
Actual Time 7:09 AM CST 4:58 PM CST
Civil Twilight 6:40 AM CST 5:27 PM CST
Nautical Twilight 6:07 AM CST 6:00 PM CST
Astronomical Twilight 5:35 AM CST 6:31 PM CST
Moon 2:11 PM CST (11/23) 2:31 AM CST (11/23)
Length of Visible Light 10h 46m
Length of Day
9h 48m
Waxing Gibbous, 80% of the Moon is Illuminated
Nov 23
Waxing Gibbous
Nov 28
Full
Dec 6
Last Quarter
Dec 13
New
Dec 19
First Quarter

Hourly Weather History & Observations

Time (CST) Temp. Windchill Dew Point Humidity Pressure Visibility Wind Dir Wind Speed Gust Speed Precip Events Conditions
1:53 AM 44.1 °F 39.0 °F 32.0 °F 63% 30.27 in 10.0 mi NW 9.2 mph - N/A   Clear
2:53 AM 43.0 °F 39.5 °F 30.9 °F 62% 30.28 in 10.0 mi West 5.8 mph - N/A   Clear
3:53 AM 42.1 °F 34.9 °F 28.9 °F 60% 30.27 in 10.0 mi WNW 13.8 mph 17.3 mph N/A   Clear
4:53 AM 41.0 °F 31.6 °F 25.0 °F 53% 30.29 in 10.0 mi WNW 20.7 mph 34.5 mph N/A   Clear
6:53 AM 32.0 °F 19.5 °F 17.1 °F 54% 30.39 in 10.0 mi NW 21.9 mph 31.1 mph N/A   Mostly Cloudy
7:53 AM 30.9 °F 17.8 °F 14.0 °F 50% 30.43 in 10.0 mi NW 23.0 mph 33.4 mph N/A   Clear
8:53 AM 32.0 °F 20.5 °F 15.1 °F 50% 30.45 in 10.0 mi NW 18.4 mph 25.3 mph N/A   Clear
9:53 AM 33.1 °F 20.9 °F 15.1 °F 48% 30.48 in 10.0 mi NW 21.9 mph 31.1 mph N/A   Clear
10:53 AM 35.1 °F 25.9 °F 17.1 °F 48% 30.49 in 10.0 mi NNW 13.8 mph 24.2 mph N/A   Clear
11:53 AM 36.0 °F 27.1 °F 14.0 °F 41% 30.47 in 10.0 mi NW 13.8 mph 24.2 mph N/A   Clear
12:53 PM 37.9 °F 29.2 °F 14.0 °F 38% 30.45 in 10.0 mi WNW 15.0 mph 23.0 mph N/A   Clear
1:53 PM 39.0 °F 31.8 °F 14.0 °F 36% 30.44 in 10.0 mi NW 11.5 mph - N/A   Clear
2:53 PM 37.9 °F 28.9 °F 12.0 °F 35% 30.44 in 10.0 mi NW 16.1 mph 24.2 mph N/A   Clear
3:53 PM 37.9 °F 29.6 °F 12.0 °F 35% 30.44 in 10.0 mi NW 13.8 mph - N/A   Clear
4:53 PM 35.1 °F 26.9 °F 10.9 °F 37% 30.45 in 10.0 mi NW 11.5 mph - N/A   Clear
5:53 PM 34.0 °F 26.0 °F 10.0 °F 37% 30.45 in 10.0 mi NW 10.4 mph - N/A   Clear
6:53 PM 33.1 °F 26.1 °F 10.0 °F 38% 30.46 in 10.0 mi NW 8.1 mph - N/A   Clear
7:53 PM 30.9 °F 24.3 °F 10.0 °F 42% 30.47 in 10.0 mi NW 6.9 mph - N/A   Clear
8:53 PM 30.0 °F 24.1 °F 10.0 °F 43% 30.47 in 10.0 mi NW 5.8 mph - N/A   Clear
9:53 PM 28.9 °F 22.8 °F 10.0 °F 45% 30.46 in 10.0 mi NNW 5.8 mph - N/A   Clear
10:53 PM 28.0 °F 20.8 °F 10.9 °F 49% 30.45 in 10.0 mi North 6.9 mph - N/A   Clear
11:53 PM 27.0 °F 23.0 °F 10.9 °F 51% 30.44 in 10.0 mi North 3.5 mph - N/A   Clear